Flag for United Kingdom Weather past 2 weeks in Taunton, England, United Kingdom

Now
54 °F

Fog.


Feels Like: 54 °F
Forecast: 55 / 73 °F
Wind: 3 mph from Northwest

Location: Dunkeswell Aerodrome

Current Time: Jul 29, 2014 at 8:09:23 AM

Latest Report: Jul 29, 2014 at 7:00 AM


Visibility: 5 mi

Pressure: 30.09 "Hg

Humidity: 97%

Dew point: 53 °F

Location of TauntonLocation

Historic Weather in Taunton — Graph

°F

Taunton temperature yesterday

Maximum temperature yesterday: 71 °F (at 5:00 PM)
Minimum temperature yesterday: 56 °F (at 4:00 AM)
Average temperature yesterday: 62 °F

Past Weeks' High & Low Weather Summary

 TemperatureHumidityPressure
High78 °F (Jul 26, 3:00 PM)100% (Jul 17, 7:00 AM)30.23 "Hg (Jul 17, 7:00 AM)
Low51 °F (Jul 14, 6:00 AM)46% (Jul 26, 3:00 PM)29.74 "Hg (Jul 19, 6:00 PM)
Average65 °F79%30.03 "Hg
* Reported Jul 14 6:00 AM — Jul 29 6:00 AM, Taunton, Weather by CustomWeather, © 2014

Note: Actual official high and low records may vary slightly from our data, if they occured in-between our weather recording intervals... More about our weather records

Advertising

Taunton weather history for previous 24 hours

 ConditionsComfort  
Time TempWeatherWind HumidityBarometerVisibility
6:00 AM
Jul 29
54 °FFog.5 mph96%30.08 "Hg4 mi
5:00 AM56 °FCool.6 mph95%30.07 "Hg9 mi
4:00 AM56 °FCool.5 mph93%30.09 "Hg9 mi
3:00 AM57 °FCool.6 mph91%30.09 "Hg12 mi
2:00 AM57 °FCool.6 mph91%30.09 "Hg12 mi
1:00 AM58 °FCool.5 mph93%30.08 "Hg13 mi
12:00 AM59 °FCool.5 mph89%30.08 "Hg14 mi
11:00 PM
Jul 28
60 °FCool.3 mph87%30.07 "Hg17 mi
10:00 PM61 °FCool.5 mph84%30.07 "Hg16 mi
9:00 PM63 °FMild.6 mph74%30.05 "Hg19 mi
8:00 PM67 °FMild.7 mph56%30.03 "Hg22 mi
7:00 PM69 °FMild.8 mph49%30.02 "Hg22 mi
6:00 PM70 °FMild.8 mph48%30.01 "Hg22 mi
5:00 PM71 °FMild.7 mph54%30.00 "Hg22 mi
4:00 PM68 °FMild.6 mph57%30.01 "Hg22 mi
3:00 PM67 °FMild.8 mph64%30.02 "Hg19 mi
2:00 PM67 °FMild.9 mph63%30.02 "Hg19 mi
1:00 PM67 °FMild.9 mph59%30.02 "Hg25 mi
12:00 PM66 °FMild.9 mph61%30.01 "Hg22 mi
11:00 AM64 °FMild.10 mph69%30.00 "Hg19 mi
10:00 AM60 °FCool.8 mph78%30.02 "Hg22 mi
9:00 AM60 °FCool.9 mph82%30.01 "Hg19 mi
8:00 AM57 °FCool.7 mph90%30.01 "Hg19 mi
Weather by CustomWeather, © 2014

See weather overviewHow to use our weather pages